Weather observations for the past three days for
Gilmer County Airport
Imperial (Metric)
Date Time (edt) Wind (mph) Vis. (mi.) Weather Sky Cond. Temperature (ºF) Relative Humidity Wind Chill (°F) Heat Index (°F) Pressure Precipitation (in)
Air Dwpt 6 hour altimeter (in) sea level (mb) 1 hr 3 hr 6 hr
Max. Min.
09 18:55 Calm 10.00 Fair CLR 68 62.6 83% 29.91 0.0
09 18:35 NW 5 10.00 Fair CLR 69.8 62.6 78% 29.91 0.0
09 18:15 Vrbl 3 10.00 Fair CLR 69.8 62.6 78% 29.91 0.0
09 17:55 Vrbl 5 10.00 Fair CLR 69.8 60.8 73% 29.9 0.0
09 17:35 Vrbl 6 10.00 Fair CLR 69.8 60.8 73% 29.91 0.0
09 17:15 Vrbl 3 10.00 Fair CLR 69.8 60.8 73% 29.9 0.0
09 16:55 Vrbl 5 10.00 Fair CLR 71.6 60.8 69% 29.9 0.0
09 16:35 Vrbl 5 10.00 Fair CLR 69.8 60.8 73% 29.9 0.0
09 16:15 Vrbl 6 10.00 Fair CLR 68 60.8 78% 29.89 0.0
09 15:55 Vrbl 6 10.00 Fair CLR 69.8 62.6 78% 29.9 0.0
09 15:35 SW 5 10.00 Fair CLR 69.8 60.8 73% 29.9 0.0
09 15:15 SW 3 10.00 Fair CLR 69.8 60.8 73% 29.9 0.0
09 14:55 Vrbl 7 10.00 A Few Clouds FEW023 68 60.8 78% 29.91 0.0
09 14:35 Vrbl 5 10.00 Partly Cloudy SCT023 68 60.8 78% 29.91 0.0
09 14:15 Vrbl 6 10.00 Fair CLR 68 60.8 78% 29.92 0.0
09 13:55 Vrbl 5 10.00 Fair CLR 66.2 59 78% 29.92 0.0
09 13:35 Calm 10.00 Fair CLR 66.2 59 78% 29.91 0.0
09 13:15 Calm 10.00 A Few Clouds FEW018 66.2 60.8 83% 29.92 0.0
09 12:55 SW 6 10.00 Mostly Cloudy FEW014 BKN020 BKN026 64.4 60.8 88% 29.93 0.0
09 12:35 Vrbl 5 10.00 Overcast SCT008 BKN020 OVC026 64.4 62.6 94% 29.94 0.0
09 12:15 Vrbl 5 7.00 Light Drizzle OVC008 62.6 62.6 100% 29.94 0.0
09 11:55 Vrbl 7 8.00 Overcast OVC008 60.8 60.8 100% 29.95 0.0
09 11:35 Vrbl 3 10.00 Overcast BKN009 OVC013 60.8 60.8 100% 29.95 0.0
09 11:15 Vrbl 5 10.00 Overcast BKN009 OVC012 60.8 60.8 100% 29.95 0.0
09 10:55 Vrbl 5 10.00 Mostly Cloudy BKN006 BKN012 BKN022 62.6 62.6 100% 29.95 0.0
09 10:35 SW 3 10.00 Mostly Cloudy BKN005 BKN009 BKN026 60.8 60.8 100% 29.94 0.0
09 10:15 Calm 2.00 Light Drizzle Fog/Mist BKN003 59 59 100% 29.93 0.0
09 09:55 Calm 1.00 Light Drizzle Fog/Mist OVC002 59 59 100% 29.92 0.0
09 09:35 Calm 0.75 Light Drizzle Fog/Mist OVC003 59 59 100% 29.92 0.0
09 09:15 Calm 1.50 Light Drizzle Fog/Mist OVC008 59 59 100% 29.92 0.0
09 08:55 Calm 10.00 Overcast OVC008 59 59 100% 29.92 0.0
09 08:35 Calm 10.00 Overcast OVC008 59 59 100% 29.91 0.0
09 08:15 Calm 10.00 Overcast OVC009 57.2 57.2 100% 29.91 0.0
09 07:55 Calm 10.00 Overcast OVC013 57.2 57.2 100% 29.91 0.0
09 07:35 Calm 10.00 Overcast OVC015 55.4 55.4 100% 29.91 0.0
09 07:15 Calm 10.00 Overcast OVC015 55.4 55.4 100% 29.91 0.0
09 06:55 Calm 10.00 Overcast OVC015 53.6 53.6 100% 29.91 0.0
09 06:35 Calm 10.00 Overcast OVC016 53.6 53.6 100% 29.91 0.0
09 06:15 Calm 10.00 Overcast OVC017 53.6 53.6 100% 29.91 0.0
09 05:55 Calm 10.00 Overcast OVC019 53.6 53.6 100% 29.91 0.0
09 05:35 Calm 10.00 Overcast OVC021 53.6 53.6 100% 29.9 0.0
09 05:15 Calm 9.00 Overcast BKN021 BKN027 OVC055 53.6 53.6 100% 29.91 0.0
09 04:55 Calm 10.00 Overcast BKN021 OVC027 53.6 53.6 100% 29.92 0.0
09 04:35 Calm 10.00 Overcast OVC020 51.8 51.8 100% 29.91 0.0
09 04:15 Calm 10.00 Overcast OVC022 53.6 53.6 100% 29.91 0.0
09 03:55 NW 3 9.00 Overcast BKN025 OVC055 53.6 53.6 100% 29.92 0.0
09 03:35 Calm 10.00 Overcast SCT022 OVC027 53.6 53.6 100% 29.91 0.0
09 03:15 Calm 9.00 Overcast OVC021 53.6 53.6 100% 29.91 0.0
09 02:55 Calm 9.00 Overcast OVC023 51.8 51.8 100% 29.91 0.0
09 02:35 Calm 6.00 Fog/Mist BKN021 OVC055 51.8 51.8 100% 29.93 0.0
09 02:15 Calm 8.00 Overcast SCT019 OVC055 50 50 100% 29.93 0.0
09 01:55 Calm 10.00 Overcast OVC060 51.8 51.8 100% 29.95 0.0
09 01:35 Calm 6.00 Fog/Mist BKN055 51.8 51.8 100% 29.95 0.0
09 01:15 Calm 10.00 Mostly Cloudy BKN055 BKN070 51.8 51.8 100% 29.95 0.0
09 00:55 Calm 10.00 A Few Clouds FEW050 FEW075 53.6 53.6 100% 29.94 0.0
09 00:35 Calm 10.00 Fair CLR 55.4 55.4 100% 29.94 0.0
09 00:15 SE 3 10.00 Fair CLR 55.4 55.4 100% 29.96 0.0
08 23:55 Calm 10.00 Fair CLR 55.4 55.4 100% 29.97 0.0
08 23:35 Calm 10.00 Mostly Cloudy BKN031 55.4 55.4 100% 29.97 0.0
08 23:15 Calm 10.00 Overcast OVC034 55.4 55.4 100% 29.97 0.0
08 22:55 Calm 10.00 Overcast OVC037 55.4 55.4 100% 29.98 0.0
08 22:35 Calm 10.00 Overcast OVC040 55.4 55.4 100% 29.98 0.0
08 22:15 Calm 10.00 Overcast OVC040 57.2 57.2 100% 29.98 0.0
08 21:55 SE 5 10.00 Mostly Cloudy BKN040 57.2 57.2 100% 29.97 0.0
08 21:35 Calm 10.00 A Few Clouds FEW039 59 59 100% 29.97 0.0
08 20:55 Calm 9.00 Fair CLR 59 57.2 94% 29.97 0.0
08 20:35 Calm 10.00 Fair CLR 59 57.2 94% 29.96 0.0
08 20:15 Calm 10.00 Fair CLR 60.8 57.2 88% 29.96 0.0
08 19:55 Calm 10.00 Fair CLR 60.8 57.2 88% 29.96 0.0
08 19:35 Calm 10.00 Fair CLR 62.6 55.4 77% 29.96 0.0
08 19:15 Calm 10.00 Fair CLR 62.6 55.4 77% 29.96 0.0
08 18:55 Calm 10.00 Fair CLR 64.4 53.6 68% 29.96 0.0
08 18:35 Vrbl 3 10.00 Fair CLR 64.4 53.6 68% 29.97 0.0
08 18:15 S 6 10.00 Fair CLR 66.2 51.8 60% 29.96 0.0
08 17:55 S 7 10.00 Fair CLR 66.2 51.8 60% 29.96 0.0
08 17:35 Vrbl 5 G 12 10.00 Fair CLR 68 50 53% 29.96 0.0
08 17:15 Vrbl 5 10.00 Fair CLR 68 50 53% 29.96 0.0
08 16:35 S 7 10.00 Fair CLR 69.8 48.2 46% 29.97 0.0
08 15:55 Vrbl 5 10.00 Fair CLR 69.8 48.2 46% 29.97 0.0
08 15:35 S 5 10.00 Fair CLR 69.8 44.6 40% 29.98 0.0
08 15:15 S 7 10.00 Fair CLR 69.8 44.6 40% 30 0.0
08 14:55 Calm 10.00 Fair CLR 69.8 44.6 40% 29.99 0.0
08 14:35 S 8 10.00 Fair CLR 69.8 44.6 40% 30.01 0.0
08 14:15 SW 8 10.00 Fair CLR 69.8 46.4 43% 30.01 0.0
08 13:55 Calm 10.00 Fair CLR 69.8 44.6 40% 30.02 0.0
08 13:35 Vrbl 5 10.00 Fair CLR 69.8 46.4 43% 30.02 0.0
08 13:15 Vrbl 7 10.00 Fair CLR 69.8 44.6 40% 30.03 0.0
08 12:55 SW 9 10.00 Fair CLR 68 42.8 40% 30.04 0.0
08 12:35 SW 5 10.00 Fair CLR 68 44.6 43% 30.05 0.0
08 12:15 SW 9 10.00 Fair CLR 68 44.6 43% 30.06 0.0
08 11:55 Vrbl 7 G 14 10.00 Fair CLR 68 44.6 43% 30.07 0.0
08 11:15 Calm 10.00 Fair CLR 64.4 48.2 56% 30.07 0.0
08 10:55 S 6 10.00 Fair CLR 62.6 48.2 60% 30.08 0.0
08 10:35 SW 6 10.00 Fair CLR 62.6 50 64% 30.08 0.0
08 10:15 Vrbl 5 10.00 Fair CLR 60.8 50 68% 30.08 0.0
08 09:55 Calm 10.00 Fair CLR 59 48.2 68% 30.08 0.0
08 09:35 Calm 10.00 Fair CLR 57.2 50 77% 30.08 0.0
08 09:15 NE 5 10.00 Fair CLR 55.4 51.8 88% 30.08 0.0
08 08:55 NE 6 10.00 Fair CLR 53.6 51.8 94% 30.09 0.0
08 08:35 Vrbl 3 10.00 Fair CLR 51.8 51.8 100% 30.09 0.0
08 08:15 Calm 10.00 Fair CLR 50 50 100% 30.08 0.0
08 07:55 Calm 10.00 Fair CLR 48.2 48.2 100% 30.06 0.0
08 07:35 Calm 10.00 Fair CLR 46.4 46.4 100% 30.05 0.0
08 07:15 Calm 10.00 Fair CLR 44.6 44.6 100% 30.04 0.0
08 06:55 Calm 10.00 Fair CLR 46.4 46.4 100% 30.03 0.0
08 06:35 Calm 9.00 Fair CLR 44.6 44.6 100% 30.02 0.0
08 06:15 N 5 9.00 Fair CLR 44.6 44.6 100% 43 30.01 0.0
08 05:55 N 5 6.00 Fog/Mist CLR 44.6 44.6 100% 43 30.01 0.0
08 05:35 Calm 4.00 Fog/Mist CLR 46.4 46.4 100% 30.01 0.0
08 05:15 Calm 9.00 Fair CLR 46.4 46.4 100% 30 0.0
08 04:55 NE 3 10.00 Fair CLR 46.4 46.4 100% 30 0.0
08 04:35 N 5 10.00 Fair CLR 48.2 48.2 100% 47 30 0.0
08 04:15 N 5 10.00 Fair CLR 48.2 48.2 100% 47 29.99 0.0
08 03:55 N 5 10.00 Fair CLR 48.2 48.2 100% 47 29.99 0.0
08 03:35 Vrbl 5 9.00 Fair CLR 48.2 48.2 100% 47 30 0.0
08 03:15 N 5 9.00 Fair CLR 48.2 48.2 100% 47 30 0.0
08 02:55 N 6 10.00 Fair CLR 48.2 48.2 100% 46 30 0.0
08 02:35 N 6 10.00 Fair CLR 48.2 48.2 100% 46 30.01 0.0
08 02:15 Calm 10.00 Fair CLR 48.2 48.2 100% 30.01 0.0
08 01:55 N 5 8.00 Fair CLR 48.2 48.2 100% 47 30.01 0.0
08 01:35 N 5 1.00 Fog/Mist CLR 48.2 48.2 100% 47 30.01 0.0
08 01:15 Calm 1.00 Fog/Mist CLR 50 50 100% 30.01 0.0
08 00:55 Calm 4.00 Fog/Mist CLR 50 50 100% 30.02 0.0
08 00:35 Calm 3.00 Fog/Mist CLR 50 50 100% 30.01 0.0
08 00:15 NE 5 9.00 Fair CLR 51.8 51.8 100% 30.01 0.0
07 23:55 Calm 2.00 Fog/Mist CLR 51.8 51.8 100% 30 0.0
07 23:35 Calm 2.50 Fog/Mist CLR 51.8 51.8 100% 30 0.0
07 23:15 Calm 5.00 Fog/Mist CLR 53.6 53.6 100% 30 0.0
07 22:55 Calm 9.00 Fair CLR 51.8 51.8 100% 30 0.0
07 22:15 Calm 10.00 Fair CLR 53.6 53.6 100% 29.99 0.0
07 21:55 Calm 10.00 Fair CLR 53.6 53.6 100% 29.99 0.0
07 21:35 Calm 10.00 Fair CLR 55.4 55.4 100% 29.98 0.0
07 21:15 Calm 10.00 Fair CLR 55.4 55.4 100% 29.97 0.0
07 20:55 Calm 10.00 Fair CLR 57.2 57.2 100% 29.97 0.0
07 20:35 Calm 10.00 Fair CLR 57.2 57.2 100% 29.96 0.0
07 20:15 Vrbl 3 10.00 Fair CLR 59 57.2 94% 29.96 0.0
07 19:55 NW 6 10.00 Fair CLR 60.8 55.4 83% 29.95 0.0
07 19:35 Vrbl 5 10.00 Fair CLR 62.6 57.2 83% 29.95 0.0
07 19:15 Vrbl 6 10.00 Fair CLR 62.6 55.4 77% 29.95 0.0
07 18:55 Vrbl 6 10.00 Fair CLR 62.6 55.4 77% 29.95 0.0
07 18:35 Calm 10.00 Partly Cloudy FEW038 SCT044 62.6 55.4 77% 29.94 0.0
07 18:15 Vrbl 6 G 12 10.00 Mostly Cloudy SCT037 BKN044 62.6 55.4 77% 29.94 0.0
07 17:55 Vrbl 6 10.00 Overcast OVC039 64.4 55.4 73% 29.95 0.0
07 17:35 NW 8 G 14 10.00 Mostly Cloudy BKN038 BKN044 62.6 55.4 77% 29.94 0.0
07 17:15 Vrbl 6 G 14 10.00 Mostly Cloudy FEW030 BKN035 BKN041 64.4 57.2 78% 29.93 0.0
07 16:55 Vrbl 6 G 14 10.00 Mostly Cloudy BKN032 BKN038 64.4 57.2 78% 29.93 0.0
07 16:35 NW 8 G 17 10.00 Partly Cloudy SCT029 SCT035 64.4 57.2 78% 29.93 0.0
07 16:15 NW 9 G 18 10.00 Partly Cloudy FEW028 SCT035 66.2 57.2 73% 29.92 0.0
07 15:55 NW 13 G 20 10.00 Mostly Cloudy BKN026 BKN035 BKN041 64.4 57.2 78% 29.92 0.0
07 15:35 NW 9 G 15 10.00 Overcast SCT023 BKN027 OVC035 66.2 60.8 83% 29.92 0.0
07 15:15 W 7 G 14 10.00 Partly Cloudy FEW020 SCT027 SCT035 66.2 60.8 83% 29.92 0.0
07 14:55 W 9 10.00 Partly Cloudy FEW020 FEW027 SCT036 68 62.6 83% 29.92 0.0
07 14:35 W 8 G 15 10.00 Overcast FEW027 OVC038 66.2 62.6 88% 29.92 0.0
07 14:15 W 8 10.00 Overcast OVC040 66.2 62.6 88% 29.93 0.0
07 13:55 Vrbl 5 G 12 10.00 Overcast OVC041 66.2 62.6 88% 29.93 0.0
07 13:35 Vrbl 6 10.00 Overcast OVC041 66.2 62.6 88% 29.93 0.0
07 13:15 W 6 10.00 Overcast FEW007 OVC039 64.4 64.4 100% 29.94 0.0
07 12:55 W 9 10.00 Overcast BKN008 BKN014 OVC036 62.6 62.6 100% 29.94 0.0
07 12:35 W 8 10.00 Overcast BKN008 BKN014 OVC036 62.6 62.6 100% 29.93 0.0
07 12:15 W 10 10.00 Overcast SCT006 OVC036 64.4 64.4 100% 29.92 0.0
07 11:55 Vrbl 6 10.00 Mostly Cloudy BKN005 BKN037 66.2 66.2 100% 29.91 0.0
07 11:35 W 8 10.00 Mostly Cloudy BKN005 BKN037 64.4 64.4 100% 29.91 0.0
07 11:15 W 6 10.00 Overcast OVC004 64.4 64.4 100% 29.91 0.0
07 10:55 Vrbl 6 10.00 Overcast OVC004 62.6 62.6 100% 29.91 0.0
07 10:35 SW 7 10.00 Overcast OVC004 60.8 60.8 100% 29.91 0.0
07 10:15 Vrbl 5 10.00 Overcast BKN005 OVC009 62.6 62.6 100% 29.91 0.0
07 09:55 Vrbl 3 10.00 Light Rain BKN006 BKN009 OVC013 62.6 62.6 100% 29.91 0.0
07 09:15 Vrbl 5 10.00 Overcast BKN004 OVC011 62.6 62.6 100% 29.89 0.0
07 08:55 Calm 10.00 Mostly Cloudy BKN004 BKN120 62.6 62.6 100% 29.88 0.0 0.07
07 08:35 N 5 6.00 Light Rain Fog/Mist FEW003 FEW120 60.8 60.8 100% 29.87 0.0
07 08:15 Calm 1.50 Light Rain Fog/Mist SCT004 SCT075 SCT085 60.8 60.8 100% 29.88 0.0
07 07:55 Calm 5.00 Light Rain Fog/Mist FEW004 SCT075 SCT090 60.8 60.8 100% 29.9 0.0 0.07
07 07:35 Calm 2.00 Light Rain Fog/Mist FEW003 FEW065 FEW085 60.8 60.8 100% 29.89 0.0
07 07:15 Vrbl 7 2.50 Light Rain Fog/Mist FEW004 SCT080 BKN090 60.8 60.8 100% 29.88 0.0
07 06:55 NE 7 9.00 Light Rain FEW004 SCT055 OVC090 60.8 60.8 100% 29.84 0.0 0.09
07 06:35 NE 5 10.00 Overcast BKN004 BKN019 OVC080 60.8 60.8 100% 29.86 0.0
07 06:15 NE 5 7.00 Light Rain BKN004 OVC011 60.8 60.8 100% 29.87 0.0
07 05:55 Vrbl 8 G 18 1.25 Heavy Rain Fog/Mist BKN003 OVC011 60.8 60.8 100% 29.9 0.0 0.18
07 05:35 N 5 3.00 Light Rain Fog/Mist SCT003 BKN010 OVC020 60.8 60.8 100% 29.86 0.0
07 05:15 Vrbl 6 0.50 Rain Fog OVC003 60.8 60.8 100% 29.88 0.0
07 04:55 Calm 3.00 Light Drizzle Fog/Mist SCT002 BKN007 OVC055 60.8 60.8 100% 29.85 0.0 0.07
07 04:35 Calm 2.50 Light Rain Fog/Mist BKN007 BKN055 OVC065 60.8 60.8 100% 29.88 0.0
07 04:15 Calm 2.00 Rain Fog/Mist OVC006 60.8 60.8 100% 29.88 0.0
07 03:55 Calm 9.00 Light Rain FEW003 BKN008 OVC055 62.6 62.6 100% 29.86 0.0 0.08
07 03:35 Calm 9.00 Light Drizzle SCT003 BKN007 OVC055 60.8 60.8 100% 29.88 0.0
07 03:15 SE 6 1.25 Light Rain Fog/Mist BKN003 OVC006 62.6 62.6 100% 29.87 0.0
07 02:55 SE 6 5.00 Light Rain Fog/Mist BKN003 BKN028 OVC060 62.6 62.6 100% 29.89 0.0 0.21
07 02:35 SE 5 1.25 Heavy Rain Fog/Mist BKN003 BKN026 OVC037 62.6 62.6 100% 29.9 0.0
07 02:15 Calm 0.75 Thunderstorm in Vicinity Rain Fog/Mist BKN003 OVC015 62.6 62.6 100% 29.92 0.0
07 01:55 Vrbl 5 1.00 Light Rain Fog/Mist BKN003 BKN014 OVC046 62.6 62.6 100% 29.91 0.0 0.12
07 01:35 Calm 7.00 Light Rain BKN004 BKN036 OVC047 62.6 62.6 100% 29.93 0.0
07 01:15 Vrbl 5 4.00 Light Rain Fog/Mist BKN004 BKN045 OVC060 62.6 62.6 100% 29.95 0.0
07 00:55 Calm 7.00 Thunderstorm in Vicinity Drizzle FEW007 SCT044 BKN060 62.6 62.6 100% 29.93 0.0 0.02
07 00:35 NE 7 7.00 Thunderstorm in Vicinity Rain SCT003 BKN049 OVC055 62.6 62.6 100% 29.92 0.0
07 00:15 N 5 10.00 Overcast SCT003 OVC050 62.6 62.6 100% 29.95 0.0
06 23:55 Calm 10.00 Overcast OVC050 62.6 62.6 100% 29.93 0.0
06 23:35 N 5 8.00 Thunderstorm in Vicinity OVC046 62.6 62.6 100% 29.94 0.0
06 23:15 Calm 10.00 Overcast BKN043 BKN070 OVC090 62.6 62.6 100% 29.93 0.0
06 22:55 Calm 7.00 Light Rain BKN041 BKN070 BKN090 62.6 62.6 100% 29.93 0.0 0.01
06 22:35 NW 3 10.00 Overcast FEW029 OVC042 62.6 62.6 100% 29.95 0.0
06 22:15 Calm 10.00 Light Rain FEW029 SCT038 BKN043 62.6 62.6 100% 29.94 0.0
06 21:55 Calm 10.00 Overcast SCT047 OVC060 62.6 62.6 100% 29.94 0.0 0.02
06 21:35 Calm 7.00 Light Drizzle FEW031 SCT047 OVC060 62.6 62.6 100% 29.94 0.0
06 21:15 Calm 4.00 Light Rain Fog/Mist FEW034 OVC048 62.6 62.6 100% 29.95 0.0
06 20:55 Calm 9.00 Light Drizzle FEW004 SCT036 OVC049 62.6 62.6 100% 29.95 0.0 0.11
06 20:35 NE 5 1.25 Thunderstorm in Vicinity Rain Fog/Mist SCT004 SCT026 OVC033 62.6 62.6 100% 29.96 0.0
06 20:15 NE 6 9.00 Thunderstorm Light Rain FEW027 BKN031 OVC060 62.6 62.6 100% 29.95 0.0
06 19:55 Vrbl 3 G 12 9.00 Thunderstorm in Vicinity FEW004 SCT029 BKN060 62.6 62.6 100% 29.96 0.0 0.54
06 19:35 S 9 G 20 0.25 Thunderstorm Heavy Rain Fog BKN003 BKN013 OVC027 62.6 62.6 100% 29.96 0.0
06 19:15 Calm 1.50 Thunderstorm in Vicinity Rain Fog/Mist FEW003 SCT013 OVC025 64.4 64.4 100% 29.93 0.0
Date Time (edt) Wind (mph) Vis. (mi.) Weather Sky Cond. Air Dwpt Max. Min. Relative Humidity Wind Chill (°F) Heat Index (°F) altimeter (in) sea level (mb) 1 hr 3 hr 6 hr
6 hour
Temperature (ºF) Pressure Precipitation (in)